Location: Newark
(7.0858°N, 171.3717°E)
Time: 19:03:27
(UTC+00:00)

Vanguard 2 - Pass Details

Date: 29 November 2020
Orbit: 553 x 2937 km, 32.9° (Epoch: 17 January)

Event Time Altitude Azimuth Distance (km) Brightness Sun altitude
Rises 13:31:02 0° 209° (SSW) 6,660 12.4 -68.1°
Reaches altitude 10° 13:44:12 10° 171° (S) 5,736 12.1 -65.6°
Maximum altitude 13:45:36 10° 166° (SSE) 5,702 12.1 -65.3°
Drops below altitude 10° 13:47:00 10° 162° (SSE) 5,683 12.1 -65.1°
Sets 13:59:03 0° 123° (ESE) 6,181 12.5 -62.6°
